www.pogodaiklimat.ru

Погода и климат >> Архив погоды >> Норвегия >> Аэропорт Vaeroy Heliport


ПОГОДА в Аэропорту Vaeroy Heliport

  • Прогноз погоды в Аэропорту Vaeroy Heliport
  • Монитор погоды в Аэропорту Vaeroy Heliport

АРХИВ ПОГОДЫ в Аэропорту Vaeroy Heliport

Время (UTC), дата Ветер
(напр.,м/с)
 
Видим.   Явления Облачность Т
(С)
Тd
(С)
f
(%)
Тe
(С)
Тes
(С)
Комфортность P
(гПа)
Po
(гПа)
Тmin
(С)
Tmax
(С)
R
(мм)
R24
(мм)
S
(см)
04 9.01 СЗ 8
{16}
н/о н/о +2.2 -1.2 78 -4 -4 1016.7 1016.2
05 9.01 СЗ 8
{14}
н/о н/о +2.0 -1.1 80 -5 -5 1016.6 1016.1
06 9.01 С 6
{19}
н/о н/о +2.6 -2.5 69 -3 -3 1017.2 1016.7 +1.3 +3.5
07 9.01 СЗ 5
{11}
н/о н/о +2.3 -3.4 66 -3 -3 1017.9 1017.4
08 9.01 СЗ 5
{11}
н/о н/о +1.8 -4.2 64 -3 -3 1018.4 1017.9
09 9.01 СЗ 4
{12}
н/о н/о +1.4 -3.8 68 -3 -3 1018.8 1018.3
10 9.01 СЗ 5
{10}
н/о н/о +1.5 -3.9 67 -4 -4 1018.8 1018.3
11 9.01 З 4
{8}
н/о н/о +1.6 -4.5 64 -3 -3 1018.6 1018.1
12 9.01 З 3
{12}
н/о н/о +1.3 -3.7 69 -3 -3 1018.7 1018.2
13 9.01 СЗ 2
{6}
н/о н/о +0.8 -3.7 72 -2 -2 1018.4 1017.9
14 9.01 З 4
{6}
н/о н/о +1.0 -3.0 75 -4 -4 1018.1 1017.6
15 9.01 ЮЗ 6
{9}
н/о н/о +1.9 -3.1 69 -4 -4 1017.5 1017.0
16 9.01 ЮЗ 4
{8}
н/о н/о +1.6 -3.3 70 -3 -3 1017.0 1016.5
17 9.01 ЮЗ 6
{9}
н/о н/о +1.7 -2.2 75 -4 -4 1015.8 1015.3
18 9.01 ЮЗ 8
{11}
н/о н/о +1.7 -0.9 83 -5 -5 1014.6 1014.1 +0.8 +2.7
19 9.01 ЮЗ 10
{13}
н/о н/о +1.6 +0.2 90 -6 -6 1013.6 1013.1
20 9.01 ЮЗ 12
{15}
н/о н/о +2.0 +0.6 90 -6 -6 1012.2 1011.7
21 9.01 ЮЗ 12
{15}
н/о н/о +2.4 +1.1 91 -6 -6 1010.9 1010.4
22 9.01 Ю 12
{17}
н/о н/о +2.8 +1.3 90 -5 -5 1009.3 1008.8
23 9.01 Ю 13
{17}
н/о н/о +3.2 +1.5 89 -5 -5 1007.3 1006.8
00 10.01 Ю 15
{21}
н/о н/о +3.6 +2.0 89 -5 -5 1005.3 1004.8
01 10.01 Ю 17
{21}
н/о н/о +4.0 +2.5 90 -4 -4 1003.0 1002.5
02 10.01 Ю 15
{22}
н/о н/о +4.5 +3.0 90 -3 -3 1001.5 1001.0
03 10.01 ЮЗ 16
{24}
н/о н/о +4.5 +3.3 92 -4 -4 999.7 999.2
04 10.01 Ю 17
{26}
н/о н/о +4.5 +3.4 93 -4 -4 997.5 997.0
05 10.01 Ю 18
{25}
н/о н/о +5.0 +4.1 94 -3 -3 995.1 994.6
06 10.01 Ю 17
{26}
н/о н/о +5.2 +4.5 95 -3 -3 993.6 993.1 +1.3 +5.3
07 10.01 ЮЗ 13
{22}
н/о н/о +6.1 +5.5 96 -1 -1 992.0 991.5
08 10.01 ЮЗ 14
{21}
н/о н/о +6.5 +5.7 95 -0 -0 990.5 990.0
09 10.01
{21}
н/о +5.9 989.8 989.3
10 10.01 ЮЗ 13
{21}
н/о н/о +6.6 +5.9 95 -0 -0 987.5 987.0
11 10.01 ЮЗ 15
{23}
н/о н/о +7.0 +6.1 94 0 0 986.4 985.9
12 10.01 ЮЗ 17
{24}
н/о н/о +7.5 +4.6 82 +1 +1 985.4 984.9
13 10.01 ЮЗ 15
{29}
н/о н/о +7.1 +1.0 65 +1 +1 984.2 983.7
14 10.01 З 14
{24}
н/о н/о +4.1 -1.5 67 -3 -3 984.5 984.1
15 10.01 З 14
{26}
н/о н/о +1.3 -2.7 75 -7 -7 984.5 984.0
16 10.01 З 14
{29}
н/о н/о +1.1 -3.8 70 -8 -8 983.7 983.2
17 10.01 З 13
{25}
н/о н/о +1.2 -4.7 65 -7 -7 982.7 982.2
18 10.01 З 14
{29}
н/о н/о +1.6 -4.4 64 -7 -7 982.3 981.8 +0.8 +7.6
19 10.01 З 12
{26}
н/о н/о +1.2 -4.3 67 -7 -7 981.5 981.0
20 10.01 З 14
{25}
н/о н/о +1.3 -4.1 67 -7 -7 980.4 979.9
21 10.01 З 15
{29}
н/о н/о +1.9 -3.3 68 -7 -7 979.3 978.8
22 10.01 З 16 н/о н/о +2.0 -3.0 69 -7 -7 978.4 977.9
23 10.01 З 17 н/о н/о +1.6 -1.8 78 -8 -8 977.4 977.0
00 11.01 З 19
{31}
н/о н/о +2.9 -1.8 71 -6 -6 976.1 975.6
01 11.01 З 9
{32}
н/о н/о +1.4 -0.7 86 -6 -6 976.7 976.2
02 11.01 З 14
{33}
н/о н/о +3.7 -0.2 76 -4 -4 975.9 975.4
03 11.01 З 14
{31}
н/о н/о +3.6 +0.7 81 -4 -4 974.2 973.8
04 11.01 СЗ 15
{29}
н/о н/о +4.4 -0.9 68 -3 -3 976.8 976.3
05 11.01 СЗ 12
{27}
н/о н/о +4.5 +0.7 76 -3 -3 978.7 978.2
06 11.01 СЗ 10
{33}
н/о н/о +4.0 -0.8 71 -3 -3 980.6 980.1 +0.3 +5.6
07 11.01 СЗ 15
{34}
н/о н/о +4.7 -1.0 67 -3 -3 982.8 982.3
08 11.01 СЗ 13
{34}
н/о н/о +3.6 -1.7 68 -4 -4 984.8 984.3
09 11.01 СЗ 12
{33}
н/о н/о +3.9 -1.3 69 -3 -3 985.5 985.0
10 11.01 СЗ 12
{34}
н/о н/о +4.1 -1.1 69 -3 -3 986.5 986.0
11 11.01 СЗ 11
{34}
н/о н/о +4.0 -0.5 72 -3 -3 988.7 988.2
12 11.01 С 9
{34}
н/о н/о +4.3 -0.8 69 -2 -2 990.7 990.3
13 11.01 С 10
{30}
н/о н/о +3.3 -1.0 73 -4 -4 992.1 991.6
14 11.01 С 12
{32}
н/о н/о +3.7 -1.6 68 -3 -3 993.8 993.3
15 11.01 СЗ 9
{26}
н/о н/о +3.2 -2.2 68 -3 -3 994.7 994.2
16 11.01 С 10
{26}
н/о н/о +2.5 -1.4 75 -5 -5 996.1 995.6
17 11.01 С 11
{21}
н/о н/о +2.5 -2.6 69 -5 -5 996.5 996.0
18 11.01 С 12
{32}
н/о н/о +3.0 -3.1 64 -4 -4 996.7 996.2 +1.9 +5.0
19 11.01 СЗ 7
{17}
н/о н/о +2.2 -3.2 67 -4 -4 997.2 996.7
20 11.01 СЗ 7
{22}
н/о н/о +1.4 -1.8 79 -5 -5 997.4 996.9
21 11.01 СЗ 5
{21}
н/о н/о +2.0 -3.5 67 -3 -3 997.3 996.9
22 11.01 СЗ 6
{22}
н/о н/о +2.0 -5.1 59 -4 -4 997.5 997.0
23 11.01 С 7
{18}
н/о н/о +1.1 -2.9 75 -5 -5 997.6 997.1
00 12.01 С 9
{22}
н/о н/о +1.8 -5.0 61 -5 -5 998.0 997.5
01 12.01 С 9
{18}
н/о н/о +1.1 -3.6 71 -6 -6 998.2 997.7
02 12.01 С 10
{19}
н/о н/о +1.9 -3.6 67 -5 -5 998.0 997.5
03 12.01 СЗ 7
{19}
н/о н/о +0.6 -5.7 63 -6 -6 998.0 997.5
04 12.01 С 6
{18}
н/о н/о +0.9 -4.4 68 -5 -5 997.6 997.1
05 12.01 С 7
{16}
н/о н/о +1.1 -5.4 62 -5 -5 997.2 996.7
06 12.01 С 5
{19}
н/о н/о -0.5 -2.6 86 -7 -7 997.0 996.5 -1.0 +3.3
07 12.01 С 8
{14}
н/о н/о -0.3 -2.3 86 -8 -8 996.8 996.3
08 12.01 С 9
{12}
н/о н/о +1.0 -2.2 79 -6 -6 996.3 995.8
09 12.01 С 6
{12}
н/о н/о +0.6 -4.7 68 -6 -6 995.8 995.3
10 12.01 С 7
{11}
н/о н/о +0.8 -3.0 76 -6 -6 996.0 995.5
11 12.01 СЗ 4
{13}
н/о н/о 0.0 -5.1 68 -5 -5 995.7 995.2
12 12.01 С 6
{14}
н/о н/о +0.3 -3.4 76 -6 -6 995.5 995.0
13 12.01 З 4
{7}
н/о н/о -0.3 -4.6 73 -6 -6 995.4 994.9
14 12.01 С 5
{9}
н/о н/о +0.1 -3.6 76 -6 -6 994.8 994.3
15 12.01 СЗ 5
{8}
н/о н/о -0.1 -5.3 68 -6 -6 994.4 993.9
16 12.01 СЗ 4
{8}
н/о н/о +0.3 -6.3 61 -5 -5 993.6 993.1
17 12.01 СЗ 3
{8}
н/о н/о +0.3 -5.9 63 -4 -4 992.9 992.4
18 12.01 С 4
{10}
н/о н/о -0.2 -4.2 74 -5 -5 992.4 991.9 -0.8 +1.2
19 12.01 СЗ 1
{7}
н/о н/о -0.4 -3.7 78 -2 -2 991.7 991.2
20 12.01 СЗ 5
{10}
н/о н/о -0.8 -4.3 77 -7 -7 990.9 990.4
21 12.01 СЗ 4
{9}
н/о н/о -1.3 -4.5 79 -7 -7 990.2 989.7
22 12.01 СЗ 3
{9}
н/о н/о -0.8 -4.4 77 -5 -5 989.0 988.5
23 12.01 С 3
{7}
н/о н/о -1.0 -3.9 81 -6 -6 987.9 987.4
00 13.01 СЗ 3
{10}
н/о н/о -2.0 -4.6 82 -7 -7 986.8 986.3
01 13.01 СЗ 4
{6}
н/о н/о -1.3 -4.8 77 -7 -7 985.7 985.2
02 13.01 СЗ 3
{6}
н/о н/о -1.5 -5.8 72 -6 -6 984.5 984.0
03 13.01 З 2
{7}
н/о н/о -2.5 -4.3 87 -7 -7 983.4 982.9
04 13.01 СЗ 3
{6}
н/о н/о -2.0 -4.4 84 -7 -7 982.1 981.6
05 13.01 С 4
{8}
н/о н/о -1.8 -5.1 78 -8 -8 981.0 980.5
06 13.01 СЗ 3
{9}
н/о н/о -2.2 -6.0 75 -7 -7 979.9 979.4 -2.5 +0.1
07 13.01 СЗ 4
{12}
н/о н/о -2.0 -5.4 78 -8 -8 979.1 978.6
08 13.01 СЗ 5
{11}
н/о н/о -2.2 -7.9 65 -8 -8 978.5 978.1
09 13.01 СЗ 5
{11}
н/о н/о -2.0 -9.3 57 -8 -8 977.9 977.5
10 13.01 СЗ 6
{11}
н/о н/о -2.3 -9.7 57 -9 -9 977.7 977.2
11 13.01 СЗ 5
{10}
н/о н/о -2.7 -11.8 50 -9 -9 977.0 976.6
12 13.01 СЗ 3
{12}
н/о н/о -3.2 -13.2 46 -8 -8 976.6 976.1
13 13.01 З 4
{7}
н/о н/о -2.7 -10.1 57 -8 -8 976.2 975.7
14 13.01 З 3
{6}
н/о н/о -2.9 -7.3 72 -8 -8 976.0 975.5
15 13.01 З 5
{10}
н/о н/о -2.6 -7.3 70 -9 -9 975.8 975.3
16 13.01 СЗ 4
{8}
н/о н/о -2.6 -6.8 73 -8 -8 975.8 975.3
17 13.01 СЗ 4
{11}
н/о н/о -1.5 -7.6 63 -7 -7 975.6 975.1
18 13.01 СЗ 3
{11}
н/о н/о -1.6 -9.2 56 -6 -6 975.4 974.9 -3.3 -0.6
19 13.01 З 2
{11}
н/о н/о -1.2 -7.9 60 -5 -5 975.2 974.7
20 13.01 ЮЗ 3
{7}
н/о н/о -0.5 -11.8 42 -4 -4 975.0 974.5
21 13.01 З 5
{8}
н/о н/о -1.0 -10.5 48 -7 -7 975.1 974.6
22 13.01 Ю 2
{10}
н/о н/о -2.9 -6.3 77 -7 -7 975.1 974.6
23 13.01 В 3
{6}
н/о н/о -2.0 -4.8 81 -7 -7 975.1 974.6
00 14.01 В 3
{11}
н/о н/о -1.7 -4.8 79 -7 -7 975.4 975.0
01 14.01 В 4
{6}
н/о н/о -1.6 -4.2 82 -7 -7 976.6 976.1
02 14.01 В 4
{6}
н/о н/о -1.3 -4.4 79 -7 -7 977.8 977.3
03 14.01 С 6
{8}
н/о н/о -0.6 -5.9 67 -7 -7 978.8 978.3
04 14.01 С 8
{9}
н/о н/о -0.3 -6.3 64 -7 -7 979.8 979.4
05 14.01 В 4
{8}
н/о н/о -0.8 -4.7 75 -6 -6 980.9 980.4
06 14.01 С 2
{9}
н/о н/о -1.2 -8.6 57 -4 -4 981.5 981.0 -3.6 -0.1
07 14.01 С 1
{6}
н/о н/о -1.3 -9.3 54 -3 -3 982.5 982.0
08 14.01 С 8
{12}
н/о н/о -1.1 -4.5 78 -9 -9 984.0 983.5
09 14.01 С 5
{10}
н/о н/о -0.7 -4.4 76 -7 -7 985.1 984.6
10 14.01 С 14
{23}
н/о н/о -1.4 -2.6 92 -11 -11 986.2 985.7
11 14.01 С 9
{21}
н/о н/о +0.7 -6.3 59 -6 -6 986.3 985.8
12 14.01 СЗ 11
{23}
н/о н/о +0.9 -6.7 57 -7 -7 986.4 985.9
13 14.01 СЗ 8
{17}
н/о н/о +0.9 -7.7 53 -6 -6 987.0 986.5
14 14.01 СЗ 8
{17}
н/о н/о +0.9 -7.7 53 -6 -6 987.0 986.5
15 14.01 СЗ 9
{22}
н/о н/о +0.7 -8.1 52 -6 -6 988.5 988.0
16 14.01 С 10
{22}
н/о н/о +0.2 -8.4 52 -7 -7 989.4 988.9
17 14.01 С 11
{19}
н/о н/о +0.3 -8.3 52 -7 -7 989.9 989.4
18 14.01 С 8
{23}
н/о н/о +0.1 -10.0 47 -7 -7 990.8 990.3 -2.5 +1.1
19 14.01 СЗ 7
{16}
н/о н/о -0.2 -10.2 47 -7 -7 991.2 990.7
20 14.01 С 5
{12}
н/о н/о -0.2 -9.4 50 -6 -6 991.4 990.9
21 14.01 С 7
{12}
н/о н/о +0.5 -6.4 60 -6 -6 991.7 991.2
22 14.01 В 3
{12}
н/о н/о -1.6 -4.8 79 -6 -6 992.1 991.6
23 14.01 С 10
{14}
н/о н/о -0.3 -5.0 71 -8 -8 992.2 991.7
00 15.01 С 5
{16}
н/о н/о -1.3 -6.6 67 -7 -7 992.3 991.8
01 15.01 З 3
{9}
н/о н/о -2.3 -5.6 78 -7 -7 992.4 991.9
02 15.01 СЗ 3
{6}
н/о н/о -2.5 -5.5 80 -8 -8 992.8 992.3
04 15.01 С 3
{6}
н/о н/о -2.5 -4.0 89 -8 -8 992.4 991.9
05 15.01 СЗ 5
{7}
н/о н/о -3.0 -4.5 89 -10 -10 991.9 991.4
06 15.01 СЗ 3
{9}
н/о н/о -2.3 -4.6 84 -7 -7 991.6 991.1 -3.2 +0.6
07 15.01 З 2
{6}
н/о н/о -3.0 -4.8 87 -7 -7 991.9 991.4
08 15.01 СЗ 3
{4}
н/о н/о -3.0 -4.3 91 -8 -8 991.6 991.1
09 15.01 СВ 4
{6}
н/о н/о -1.8 -2.9 92 -8 -8 991.3 990.8
10 15.01 СВ 5
{6}
н/о н/о -1.3 -3.0 88 -8 -8 991.2 990.7
11 15.01 СВ 4
{7}
н/о н/о -0.8 -3.1 84 -6 -6 991.0 990.5
12 15.01 Ю 4
{8}
н/о н/о -0.7 -6.1 67 -6 -6 990.8 990.3
13 15.01 З 3
{6}
н/о н/о -1.2 -6.0 70 -6 -6 990.9 990.4
14 15.01 СЗ 3
{6}
н/о н/о -2.2 -5.0 81 -7 -7 991.3 990.8
15 15.01 СЗ 3
{4}
н/о н/о -2.0 -4.6 82 -7 -7 991.5 991.0
16 15.01 СВ 2
{5}
н/о н/о -1.5 -4.4 81 -5 -5 991.5 991.0
17 15.01 Ю 3
{5}
н/о н/о -1.2 -5.8 71 -6 -6 991.8 991.3
18 15.01 ЮВ 3
{7}
н/о н/о -2.1 -5.1 80 -7 -7 992.0 991.5 -3.2 -0.3
19 15.01 СВ 3
{7}
н/о н/о -2.4 -4.8 84 -7 -7 992.2 991.7
20 15.01 С 3
{5}
н/о н/о -2.3 -4.2 87 -7 -7 992.6 992.1
21 15.01 СЗ 3
{6}
н/о н/о -2.9 -4.3 90 -8 -8 992.8 992.3
22 15.01 СЗ 4
{9}
н/о н/о -3.2 -4.6 90 -9 -9 993.0 992.5
23 15.01 С 5
{8}
н/о н/о -2.3 -3.9 89 -9 -9 993.5 993.0
00 16.01 С 3
{9}
н/о н/о -2.3 -5.4 79 -7 -7 993.3 992.8
01 16.01 СЗ 2
{5}
н/о н/о -2.5 -7.1 71 -6 -6 993.1 992.6
02 16.01 СЗ 2
{3}
н/о н/о -2.8 -7.0 73 -7 -7 993.2 992.7

 

Местоположение метеостанции Аэропорт Vaeroy Heliport (Норвегия): широта 67.65 долгота 12.72 высота над уровнем моря 4 м.

В архиве по умолчанию представлена погода в Аэропорту Vaeroy Heliport за последнюю неделю. Архивные данные за месяц целиком и за предыдущие месяцы, начиная с января 2011 года, Вы можете получить, выбрав интересующий диапазон дат из раскрывающегося списка и нажав кнопку "Ввод!".


*Определитесь, кто Вы:
робот инопланетянин человек

Внимание! Время в таблицах - всемирное. Для получения местного времени необходимо прибавить поправку, которая равна 1 ч.

Смотрите также архив погоды в соседних городах и на ближайших метеорологических станциях:

Погода в Рост аэропорту (Норвегия) (30 км)
Погода в Хеллигвере (Норвегия) (57 км)
Погода в Лекнесе (Норвегия) (68 км)
Погода в Бодо (Норвегия) (82 км)
Погода в Рейпе (Норвегия) (92 км)
Погода на Маяке Skrova (Норвегия) (98 км)
Погода на Мыкене (Норвегия) (98 км)
Погода в Сволваер аэропорту (Норвегия) (105 км)
Погода в Бё (Норвегия) (128 км)
Погода в Сетсе (Норвегия) (130 км)

Пояснения к столбцам:

Ветер - указаны скорость ветра в м/с - средняя за 10 мин, порывы в срок и между сроками (в фигурных скобках) и направление, откуда дует ветер: С - северный, СВ - северо-восточный, В - восточный, ЮВ - юго-восточный, Ю - южный, ЮЗ - юго-западный, З - западный, СЗ - северо-западный.
Видимость - горизонтальная дальность видимости в метрах или километрах. При видимости от 1 до 10 км при отсутствии осадков обычно наблюдается дымка, при ухудшении видимости до 1 км и менее - туман. В сухую погоду видимость может ухудшаться дымом, пылью или мглою.
Явления - указаны атмосферные явления, наблюдавшиеся в срок или в последний час перед сроком; фигурными скобками обозначены явления, наблюдавшиеся между сроками (за 1-3 часа до срока); квадратными скобками обозначены град или гололедные отложения с указанием их диаметра в мм.
Облачность - указаны через наклонную черту общая и нижняя облачность в баллах и высота нижней границы облаков в метрах; квадратными скобками обозначены формы облаков: Ci - перистые, Cs - перисто-слоистые, Cc - перисто-кучевые, Ac - высококучевые, As - высокослоистые, Sc - слоисто-кучевые, Ns - слоисто-дождевые, Cu - кучевые, Cb - кучево-дождевые. Подробнее классификацию облаков см. в Атласе облаков (PDF).
T - Температура воздуха - температура, измеренная на высоте 2 м над землей.
Td - Температура точки росы - температура, при понижении до которой содержащийся в воздухе водяной пар достигнет насыщения.
f - Относительная влажность воздуха - влажноcть воздуха, измеренная на высоте 2 м над землей.
Te - Эффективная температура - температура, которую ощущает одетый по сезону человек в тени. Характеристика душности погоды. При расчете учитывается влияние влажности воздуха и скорости ветра на теплоощущения человека.
Tes - Эффективная температура на солнце - температура, которую ощущает человек, с поправкой на солнечный нагрев. Характеристика знойности погоды. Зависит от высоты солнца над горизонтом, облачности и скорости ветра. Ночью, в пасмурную погоду, а также при ветре 12 м/с и более поправка равна нулю.
P - Атмосферное давление - приведенное к уровню моря атмосферное давление.
Po - Атмосферное давление - измеренное на уровне метеостанции атмосферное давление.
Tmin - Минимальная температура - минимум температуры воздуха на высоте 2 м над землей.
Tmax - Максимальная температура - максимум температуры воздуха на высоте 2 м над землей.
R - Количество осадков - Количество выпавших осадков за период времени, мм. При наведении курсора мыши на число - период времени, за который выпало указанное количество осадков.
R24 - Количество осадков - Количество выпавших осадков за 24 часа, мм.
S - Снежный покров - Высота снежного покрова, см. При наведении курсора мыши на число - состояние снежного покрова и степень покрытия местности в баллах.